#timestamp,LO_Frequency,Hit,StdDev 
1548687615.5,286047000.9,N
1548687635.3,286047001.2,N
1548687655.1,286046998.2,N
1548687675.9,286046998.3,N
1548687695.7,286046998.1,N
1548687715.6,286047001.1,N
1548687735.4,286046998.5,N
1548687755.2,286046999.0,N
1548687775.1,286046998.8,N
1548687776.0,286046998.8,N
1548687795.8,286046999.0,N
1548687815.7,286046999.0,N
1548687835.5,286046999.3,N
1548687855.3,286046999.5,N
1548687875.2,286046996.8,N
1548687895.9,286046996.6,N
1548687915.7,286046996.6,N
1548687935.6,286046997.1,N
1548687955.4,286046998.9,N
1548687975.2,286046997.0,N
1548687995.1,286046998.8,N
1548687996.0,286046998.8,N
1548688015.8,286046996.7,N
1548688035.7,286046999.2,N
1548688055.5,286046996.6,N
1548688075.3,286046996.9,N
1548688095.2,286046998.6,N
1548688115.0,286046998.4,N
1548688115.9,286046998.4,N
1548688135.7,286046998.8,N
1548688155.6,286046998.3,N
1548688175.4,286046998.3,N
1548688195.3,286046999.6,N
1548688215.1,286046997.0,N
1548688216.0,286046997.0,N
1548688235.8,286046998.6,N
1548688255.7,286047001.1,N
1548688275.5,286046998.9,N
1548688295.3,286046998.2,N
1548688315.2,286047000.7,N
1548688335.0,286047000.8,N
1548688335.9,286047000.8,N
1548688355.8,286047000.9,N
1548688375.6,286046998.4,N
1548688395.4,286046998.7,N
1548688415.3,286046999.1,N
1548688435.1,286046999.4,N
1548688455.8,286046998.3,N
1548688475.7,286046998.9,N
1548688495.5,286046999.2,N
1548688515.4,286046999.1,N
1548688535.2,286046998.7,N
1548688555.0,286046998.1,N
1548688555.9,286046998.1,N
1548688575.8,286046999.0,N
1548688595.6,286046999.1,N
1548688615.4,286046999.0,N
1548688635.3,286046998.4,N
1548688655.1,286046998.9,N
1548688675.9,286046997.2,N
1548688695.7,286046996.8,Y
1548688715.5,286046998.4,P
1548688735.4,286046999.4,N
1548688755.2,286046998.6,P
1548688775.0,286047001.0,N
1548688806.0,286046998.2,E
1548688815.9,286047000.0,N
1548688835.7,286047002.3,P
1548688855.6,286047002.3,N
1548688875.4,286047002.0,N
1548688895.2,286047001.5,N
1548688915.1,286047011.9,Y
1548688916.0,286047003.7,P
1548688935.8,286047003.1,N
1548688955.7,286047003.6,P
1548689005.5,286047002.4,E
1548689015.4,286046996.9,N
1548689035.3,286046996.2,P
1548689055.1,286046991.2,P
1548689075.9,286046987.6,Y
1548689095.7,286046990.7,P
1548689115.5,286046992.8,P
1548689135.4,286046988.7,P
1548689155.2,286046988.0,Y
1548689175.1,286046996.8,P
1548689176.0,286046996.8,N
1548689195.8,286047003.0,N
1548689215.6,286047005.1,N
1548689235.5,286047008.3,N
1548689255.3,286047005.2,N
1548689275.1,286047004.3,N
1548689295.9,286047000.9,N
1548689315.7,286046998.7,N
1548689335.6,286046996.6,N
1548689355.4,286046999.6,N
1548689375.2,286046998.9,N
1548689395.1,286047000.8,N
1548689396.0,286047000.8,N
1548689415.8,286047002.7,N
1548689435.6,286047001.8,N
1548689455.5,286047001.9,N
1548689475.3,286047004.1,N
1548689495.2,286047003.8,N
1548689515.9,286047003.6,N
1548689535.7,286047005.6,N
1548689555.6,286047005.4,N
1548689575.4,286047005.8,N
1548689595.2,286047005.6,N
1548689615.1,286047004.7,N
1548689616.0,286047004.7,N
1548689635.8,286047005.7,N
1548689655.7,286047006.9,N
1548689675.5,286047007.5,N
1548689695.3,286047007.4,N
1548689715.2,286047006.9,N
1548689735.9,286047006.4,N
1548689755.7,286047006.5,N
1548689775.6,286047008.8,N
1548689795.4,286047009.1,N
1548689815.2,286047008.1,N
1548689835.1,286047010.8,Y
1548689836.0,286047010.8,P
1548689855.8,286047004.5,N
1548689875.7,286047005.8,N
1548689895.5,286047005.7,N
1548689915.3,286047004.9,N
1548689935.2,286047005.7,N
1548689955.0,286047005.1,N
1548689955.9,286047005.1,N
1548689975.8,286047005.4,N
1548689995.6,286047005.1,N
1548690015.4,286047006.0,Y
1548690035.3,286047001.2,P
1548690055.1,286047001.2,N
1548690075.8,286046998.4,N
1548690095.7,286046998.3,N
1548690115.5,286046998.6,N
1548690135.4,286046998.5,N
1548690155.2,286046998.5,N
1548690175.0,286046998.3,N
1548690175.9,286046998.3,N
1548690195.8,286046998.1,N
1548690215.6,286047000.4,N
1548690235.5,286047001.1,N
1548690255.3,286046998.2,N
1548690275.1,286047000.8,N
1548690295.9,286047001.2,N
1548690315.7,286047001.0,N
1548690335.5,286047000.2,N
1548690355.4,286047000.7,N
1548690375.2,286047000.3,N
1548690395.1,286047002.0,N
1548690396.0,286047002.0,N
1548690415.8,286047002.3,N
1548690435.6,286047000.2,N
1548690455.5,286047000.5,N
1548690475.3,286046999.7,N
1548690495.1,286047000.0,N
1548690515.9,286047002.8,N
1548690535.7,286047001.9,N
1548690555.6,286047001.6,N
1548690575.4,286047002.1,N
1548690595.2,286047002.7,N
1548690615.1,286047002.0,N
1548690616.0,286047002.0,N
1548690635.8,286047002.3,N
1548690655.6,286047002.4,N
1548690675.5,286047001.8,N
1548690695.3,286046999.7,N
1548690715.1,286047000.1,N
1548690735.9,286047002.4,N
1548690755.7,286047002.8,N
1548690775.6,286047002.8,N
1548690795.4,286047000.2,N
1548690815.2,286046999.9,N
1548690835.1,286047000.8,N
1548690836.0,286047000.8,N
1548690855.8,286047000.7,N
1548690875.6,286047000.3,N
1548690895.5,286047000.0,N
1548690915.3,286047000.9,N
1548690935.2,286046998.2,N
1548690955.9,286047000.0,N
1548690975.7,286047000.6,N
1548690995.6,286047000.3,N
1548691015.4,286047000.3,N
1548691035.2,286047002.7,N
1548691055.1,286047002.3,N
1548691056.0,286047002.3,N
1548691075.8,286047000.1,N
1548691095.7,286046999.9,N
1548691115.5,286047000.4,N
1548691135.3,286047001.0,N
1548691155.2,286047000.3,N
1548691175.0,286047002.5,N
1548691175.9,286047002.5,N
1548691195.7,286047002.1,N
